• Em Portugal
  • Lista de países
  • Para 7 dias
  • Temperatura da água
  • Mapas de satélite
  • Mapa do tempo
  • Widgets de tempo
  • user-avatar
    Iniciar Sessão

    Previsão horária em Pstraze

    Hoje, 15 Agosto, Quarta-feira

    Tempo Temperatura Precipitação Vento Pressão Humidade
    00:00 +19°C° 0 mm 3 m/s 748 mmHg 80%
    01:00 +18°C° 0 mm 3 m/s 748 mmHg 82%
    02:00 +18°C° 0 mm 3 m/s 748 mmHg 84%
    03:00 +18°C° 0 mm 3 m/s 748 mmHg 86%
    04:00 +17°C° 0 mm 4 m/s 749 mmHg 88%
    05:00 +18°C° 0 mm 4 m/s 749 mmHg 86%
    06:00 +18°C° 0 mm 4 m/s 749 mmHg 84%
    07:00 +18°C° 0 mm 4 m/s 750 mmHg 83%
    08:00 +19°C° 0 mm 4 m/s 750 mmHg 77%
    09:00 +20°C° 0 mm 4 m/s 750 mmHg 72%
    10:00 +21°C° 0 mm 4 m/s 750 mmHg 66%
    11:00 +22°C° 0 mm 4 m/s 750 mmHg 60%
    12:00 +23°C° 0 mm 4 m/s 750 mmHg 54%
    13:00 +25°C° 0 mm 4 m/s 750 mmHg 49%
    14:00 +26°C° 0 mm 4 m/s 750 mmHg 49%
    15:00 +26°C° 0 mm 4 m/s 750 mmHg 49%
    16:00 +26°C° 0 mm 4 m/s 750 mmHg 49%
    17:00 +24°C° 0 mm 3 m/s 750 mmHg 54%
    18:00 +23°C° 0 mm 2 m/s 750 mmHg 59%
    19:00 +21°C° 0 mm 2 m/s 750 mmHg 63%
    20:00 +21°C° 0 mm 1 m/s 751 mmHg 66%
    21:00 +20°C° 0 mm 1 m/s 751 mmHg 69%
    22:00 +20°C° 0 mm 1 m/s 752 mmHg 72%
    23:00 +19°C° 0 mm 1 m/s 752 mmHg 73%

    Amanhã, 16 Agosto, Quinta-feira

    Tempo Temperatura Precipitação Vento Pressão Humidade
    00:00 +19°C° 0 mm 1 m/s 752 mmHg 75%
    01:00 +18°C° 0 mm 1 m/s 752 mmHg 77%
    02:00 +18°C° 0 mm 1 m/s 752 mmHg 78%
    03:00 +18°C° 0 mm 1 m/s 751 mmHg 79%
    04:00 +16°C° 0 mm 1 m/s 751 mmHg 81%
    05:00 +19°C° 0 mm 1 m/s 751 mmHg 76%
    06:00 +20°C° 0 mm 1 m/s 752 mmHg 71%
    07:00 +21°C° 0 mm 1 m/s 752 mmHg 67%
    08:00 +23°C° 0 mm 1 m/s 752 mmHg 60%
    09:00 +25°C° 0 mm 1 m/s 752 mmHg 54%
    10:00 +26°C° 0 mm 1 m/s 752 mmHg 48%
    11:00 +27°C° 0 mm 1 m/s 751 mmHg 46%
    12:00 +27°C° 0 mm 1 m/s 751 mmHg 44%
    13:00 +28°C° 0 mm 2 m/s 750 mmHg 42%
    14:00 +28°C° 0 mm 2 m/s 750 mmHg 42%
    15:00 +28°C° 0 mm 2 m/s 750 mmHg 42%
    16:00 +28°C° 0 mm 2 m/s 750 mmHg 42%
    17:00 +27°C° 0 mm 2 m/s 749 mmHg 47%
    18:00 +26°C° 0 mm 2 m/s 749 mmHg 51%
    19:00 +24°C° 0 mm 2 m/s 749 mmHg 56%
    20:00 +23°C° 0 mm 2 m/s 749 mmHg 60%
    21:00 +21°C° 0 mm 2 m/s 749 mmHg 63%
    22:00 +20°C° 0 mm 2 m/s 750 mmHg 66%
    23:00 +20°C° 0 mm 2 m/s 749 mmHg 68%

    Depois de amanhã, 17 Agosto, Sexta-feira

    Tempo Temperatura Precipitação Vento Pressão Humidade
    00:00 +19°C° 0 mm 2 m/s 749 mmHg 70%
    01:00 +19°C° 0 mm 2 m/s 749 mmHg 72%
    02:00 +19°C° 0 mm 2 m/s 749 mmHg 73%
    03:00 +18°C° 0 mm 2 m/s 749 mmHg 74%
    04:00 +18°C° 0 mm 2 m/s 749 mmHg 75%
    05:00 +19°C° 0 mm 2 m/s 749 mmHg 72%
    06:00 +20°C° 0 mm 2 m/s 749 mmHg 68%
    07:00 +21°C° 0 mm 2 m/s 749 mmHg 65%
    08:00 +24°C° 0 mm 2 m/s 749 mmHg 58%
    09:00 +26°C° 0 mm 2 m/s 749 mmHg 52%
    10:00 +28°C° 0 mm 2 m/s 749 mmHg 45%
    11:00 +29°C° 0 mm 2 m/s 748 mmHg 42%
    12:00 +30°C° 0 mm 2 m/s 748 mmHg 40%
    13:00 +31°C° 0 mm 2 m/s 748 mmHg 37%
    14:00 +31°C° 0 mm 1 m/s 748 mmHg 37%
    15:00 +31°C° 0 mm 1 m/s 747 mmHg 38%
    16:00 +31°C° 0 mm 1 m/s 747 mmHg 38%
    17:00 +29°C° 0 mm 1 m/s 747 mmHg 42%
    18:00 +28°C° 0 mm 1 m/s 748 mmHg 46%
    19:00 +27°C° 0 mm 1 m/s 748 mmHg 50%
    20:00 +26°C° 0 mm 1 m/s 748 mmHg 53%
    21:00 +25°C° 0 mm 1 m/s 748 mmHg 55%
    22:00 +24°C° 0 mm 2 m/s 749 mmHg 58%
    23:00 +23°C° 0,3 mm 2 m/s 749 mmHg 64%

    18 Agosto, Sábado

    Tempo Temperatura Precipitação Vento Pressão Humidade
    00:00 +21°C° 0,3 mm 3 m/s 749 mmHg 70%
    01:00 +21°C° 0,3 mm 3 m/s 749 mmHg 77%
    02:00 +20°C° 0,4 mm 3 m/s 750 mmHg 82%
    03:00 +19°C° 0,4 mm 3 m/s 750 mmHg 87%
    04:00 +19°C° 0,4 mm 3 m/s 750 mmHg 92%
    05:00 +19°C° 0,1 mm 3 m/s 751 mmHg 92%
    06:00 +19°C° 0,1 mm 3 m/s 751 mmHg 91%
    07:00 +19°C° 0,1 mm 3 m/s 751 mmHg 90%
    08:00 +19°C° 0 mm 3 m/s 752 mmHg 85%
    09:00 +20°C° 0 mm 3 m/s 752 mmHg 79%
    10:00 +21°C° 0 mm 3 m/s 752 mmHg 74%
    11:00 +22°C° 0 mm 3 m/s 752 mmHg 67%
    12:00 +24°C° 0 mm 2 m/s 752 mmHg 59%
    13:00 +25°C° 0 mm 2 m/s 752 mmHg 52%
    14:00 +26°C° 0 mm 2 m/s 752 mmHg 48%
    15:00 +27°C° 0 mm 2 m/s 752 mmHg 44%
    16:00 +27°C° 0 mm 2 m/s 752 mmHg 41%
    17:00 +25°C° 0 mm 2 m/s 752 mmHg 45%
    18:00 +24°C° 0 mm 2 m/s 752 mmHg 49%
    19:00 +22°C° 0 mm 1 m/s 752 mmHg 53%
    20:00 +21°C° 0 mm 1 m/s 752 mmHg 54%
    21:00 +20°C° 0 mm 1 m/s 753 mmHg 56%
    22:00 +19°C° 0 mm 1 m/s 753 mmHg 58%
    23:00 +19°C° 0 mm 1 m/s 753 mmHg 59%

    19 Agosto, Domingo

    Tempo Temperatura Precipitação Vento Pressão Humidade
    00:00 +19°C° 0 mm 1 m/s 753 mmHg 60%
    01:00 +18°C° 0 mm 1 m/s 753 mmHg 61%
    02:00 +18°C° 0 mm 1 m/s 753 mmHg 62%
    03:00 +18°C° 0 mm 1 m/s 753 mmHg 64%
    04:00 +16°C° 0 mm 2 m/s 753 mmHg 65%
    05:00 +17°C° 0 mm 2 m/s 753 mmHg 63%
    06:00 +18°C° 0 mm 2 m/s 754 mmHg 61%
    07:00 +19°C° 0 mm 2 m/s 754 mmHg 58%
    08:00 +21°C° 0 mm 2 m/s 754 mmHg 53%
    09:00 +24°C° 0 mm 2 m/s 754 mmHg 48%
    10:00 +26°C° 0 mm 2 m/s 754 mmHg 43%
    11:00 +26°C° 0 mm 2 m/s 754 mmHg 41%
    12:00 +27°C° 0 mm 3 m/s 754 mmHg 39%
    13:00 +28°C° 0 mm 3 m/s 754 mmHg 37%
    14:00 +28°C° 0 mm 3 m/s 753 mmHg 39%
    15:00 +28°C° 0 mm 3 m/s 753 mmHg 40%
    16:00 +28°C° 0 mm 3 m/s 753 mmHg 42%
    17:00 +26°C° 0 mm 2 m/s 753 mmHg 48%
    18:00 +25°C° 0 mm 2 m/s 753 mmHg 55%
    19:00 +23°C° 0 mm 2 m/s 753 mmHg 61%
    20:00 +22°C° 0 mm 1 m/s 753 mmHg 65%
    21:00 +21°C° 0 mm 1 m/s 754 mmHg 69%
    22:00 +20°C° 0 mm 1 m/s 754 mmHg 73%
    23:00 +20°C° 0 mm 1 m/s 754 mmHg 75%

    20 Agosto, Segunda-feira

    Tempo Temperatura Precipitação Vento Pressão Humidade
    00:00 +20°C° 0 mm 1 m/s 754 mmHg 76%
    01:00 +19°C° 0 mm 1 m/s 754 mmHg 78%
    02:00 +19°C° 0 mm 1 m/s 754 mmHg 79%
    03:00 +19°C° 0 mm 1 m/s 753 mmHg 80%
    04:00 +19°C° 0 mm 1 m/s 753 mmHg 81%
    05:00 +20°C° 0 mm 1 m/s 753 mmHg 76%
    06:00 +21°C° 0 mm 1 m/s 753 mmHg 72%
    07:00 +22°C° 0 mm 1 m/s 754 mmHg 68%
    08:00 +24°C° 0 mm 1 m/s 754 mmHg 61%
    09:00 +26°C° 0 mm 1 m/s 754 mmHg 54%
    10:00 +28°C° 0 mm 1 m/s 754 mmHg 47%
    11:00 +29°C° 0 mm 1 m/s 753 mmHg 44%
    12:00 +29°C° 0 mm 1 m/s 753 mmHg 42%
    13:00 +30°C° 0 mm 1 m/s 753 mmHg 39%
    14:00 +30°C° 0 mm 1 m/s 753 mmHg 39%
    15:00 +30°C° 0 mm 1 m/s 752 mmHg 40%
    16:00 +30°C° 0 mm 1 m/s 752 mmHg 40%
    17:00 +28°C° 0 mm 1 m/s 752 mmHg 44%
    18:00 +27°C° 0 mm 1 m/s 752 mmHg 48%
    19:00 +26°C° 0 mm 1 m/s 752 mmHg 53%
    20:00 +25°C° 0 mm 1 m/s 752 mmHg 55%
    21:00 +24°C° 0 mm 1 m/s 752 mmHg 57%
    22:00 +23°C° 0 mm 1 m/s 752 mmHg 59%
    23:00 +23°C° 0 mm 1 m/s 752 mmHg 61%
    Mostrar mais